QPF
0.10 0.12 0.11 0.10 0.09 0.08 0.08 0.11 0.17 0.19 0.24 0.28 0.24 0.19 0.18 0.16 0.12 0.09 0.07 0.07 0.10 0.11 0.10 0.09 0.10 0.13 0.15 0.18 0.21 0.23 0.23 0.23 0.19 0.15 0.11 0.08 0.08 0.07 0.05 0.02 0.01 0.01 0.00
0.15 0.16 0.15 0.14 0.12 0.12 0.15 0.18 0.20 0.22 0.24 0.27 0.21 0.17 0.16 0.19 0.16 0.11 0.09 0.09 0.10 0.11 0.09 0.09 0.11 0.14 0.17 0.17 0.19 0.21 0.23 0.25 0.23 0.17 0.12 0.08 0.07 0.09 0.09 0.07 0.04 0.02 0.01
0.19 0.21 0.19 0.17 0.17 0.21 0.22 0.22 0.21 0.24 0.22 0.22 0.20 0.20 0.19 0.18 0.14 0.12 0.12 0.10 0.08 0.06 0.05 0.06 0.08 0.11 0.14 0.17 0.18 0.18 0.18 0.20 0.21 0.19 0.15 0.10 0.07 0.07 0.09 0.10 0.09 0.06 0.03
0.22 0.24 0.24 0.23 0.24 0.25 0.23 0.21 0.20 0.22 0.24 0.26 0.27 0.24 0.23 0.20 0.16 0.15 0.13 0.09 0.07 0.04 0.04 0.04 0.05 0.08 0.11 0.14 0.18 0.18 0.17 0.17 0.17 0.17 0.15 0.11 0.07 0.04 0.04 0.07 0.09 0.08 0.06
0.26 0.25 0.25 0.24 0.24 0.22 0.17 0.13 0.13 0.14 0.17 0.18 0.17 0.17 0.17 0.15 0.13 0.11 0.09 0.07 0.07 0.05 0.05 0.05 0.02 0.03 0.06 0.11 0.16 0.16 0.16 0.14 0.12 0.13 0.14 0.12 0.09 0.05 0.03 0.03 0.05 0.06 0.07
0.32 0.30 0.25 0.21 0.18 0.15 0.12 0.11 0.09 0.09 0.08 0.08 0.07 0.08 0.08 0.08 0.07 0.06 0.03 0.03 0.03 0.03 0.02 0.03 0.03 0.01 0.02 0.05 0.09 0.11 0.14 0.13 0.09 0.08 0.09 0.11 0.12 0.09 0.05 0.03 0.03 0.04 0.05
0.34 0.31 0.25 0.20 0.16 0.13 0.10 0.07 0.06 0.04 0.03 0.04 0.04 0.03 0.03 0.03 0.03 0.03 0.02 0.01 0.01 0.01 0.00 0.01 0.01 0.02 0.02 0.01 0.02 0.03 0.06 0.08 0.09 0.07 0.06 0.07 0.08 0.09 0.07 0.05 0.03 0.02 0.02
0.37 0.36 0.29 0.22 0.16 0.12 0.10 0.06 0.04 0.03 0.02 0.02 0.01 0.01 0.01 0.01 0.01 0.00 0.00 0.00 0.01 0.00 0.00 0.00 0.00 0.01 0.01 0.02 0.01 0.01 0.02 0.05 0.08 0.08 0.07 0.07 0.07 0.06 0.06 0.06 0.04 0.03 0.02
0.24 0.24 0.22 0.18 0.15 0.13 0.10 0.09 0.06 0.04 0.02 0.01 0.01 0.00 0.00 0.00 0.00 0.00 0.00 0.00 0.00 0.00 0.00 0.00 0.00 0.00 0.00 0.01 0.01 0.01 0.01 0.01 0.04 0.07 0.08 0.08 0.07 0.05 0.05 0.05 0.05 0.04 0.04
0.14 0.16 0.15 0.15 0.13 0.12 0.10 0.08 0.07 0.07 0.04 0.02 0.01 0.00 0.00 0.00 0.00 0.00 0.00 0.00 0.00 0.00 0.00 0.00 0.00 0.00 0.00 0.00 0.01 0.01 0.00 0.00 0.02 0.04 0.07 0.08 0.06 0.04 0.03 0.03 0.05 0.05 0.05
0.07 0.10 0.11 0.11 0.12 0.11 0.09 0.08 0.07 0.07 0.06 0.03 0.02 0.01 0.01 0.00 0.00 0.00 0.00 0.00 0.00 0.00 0.00 0.00 0.00 0.00 0.00 0.00 0.01 0.00 0.00 0.00 0.00 0.01 0.03 0.05 0.06 0.04 0.03 0.03 0.06 0.07 0.07
0.03 0.05 0.07 0.09 0.11 0.11 0.11 0.10 0.08 0.06 0.06 0.06 0.04 0.02 0.01 0.00 0.00 0.00 0.00 0.00 0.00 0.00 0.00 0.00 0.00 0.00 0.00 0.00 0.00 0.01 0.01 0.00 0.00 0.01 0.01 0.02 0.04 0.05 0.05 0.06 0.08 0.09 0.10
0.01 0.01 0.02 0.04 0.07 0.10 0.12 0.13 0.12 0.09 0.08 0.08 0.06 0.04 0.02 0.01 0.00 0.00 0.00 0.00 0.00 0.00 0.00 0.00 0.00 0.00 0.00 0.00 0.00 0.00 0.01 0.01 0.01 0.02 0.03 0.03 0.03 0.04 0.04 0.06 0.09 0.11 0.14
0.00 0.00 0.01 0.01 0.02 0.05 0.09 0.13 0.15 0.14 0.13 0.09 0.07 0.07 0.05 0.02 0.01 0.00 0.00 0.00 0.00 0.00 0.00 0.00 0.00 0.01 0.00 0.00 0.00 0.00 0.01 0.01 0.02 0.03 0.03 0.02 0.03 0.04 0.05 0.07 0.07 0.09 0.11
0.00 0.00 0.00 0.00 0.01 0.02 0.04 0.08 0.13 0.16 0.19 0.18 0.13 0.09 0.07 0.05 0.02 0.01 0.00 0.00 0.00 0.00 0.00 0.00 0.01 0.01 0.01 0.00 0.00 0.01 0.01 0.01 0.02 0.02 0.01 0.02 0.02 0.03 0.04 0.07 0.08 0.09 0.09
0.00 0.00 0.00 0.00 0.00 0.00 0.01 0.03 0.07 0.14 0.21 0.24 0.24 0.19 0.13 0.08 0.05 0.03 0.01 0.00 0.00 0.00 0.00 0.00 0.01 0.01 0.01 0.00 0.00 0.00 0.00 0.01 0.02 0.01 0.02 0.02 0.03 0.03 0.04 0.05 0.06 0.08 0.10
0.00 0.00 0.00 0.00 0.00 0.00 0.00 0.01 0.03 0.07 0.16 0.26 0.33 0.32 0.26 0.18 0.12 0.08 0.04 0.02 0.01 0.01 0.01 0.01 0.01 0.02 0.01 0.01 0.01 0.00 0.00 0.01 0.01 0.02 0.03 0.03 0.04 0.05 0.05 0.06 0.06 0.08 0.08
0.00 0.00 0.00 0.00 0.00 0.00 0.00 0.00 0.01 0.03 0.08 0.16 0.31 0.43 0.42 0.34 0.25 0.16 0.10 0.06 0.03 0.01 0.01 0.01 0.02 0.02 0.02 0.02 0.01 0.00 0.00 0.00 0.01 0.02 0.02 0.03 0.04 0.04 0.04 0.05 0.05 0.06 0.06
0.00 0.00 0.00 0.00 0.00 0.00 0.00 0.00 0.00 0.01 0.03 0.07 0.15 0.30 0.47 0.51 0.41 0.30 0.20 0.12 0.07 0.04 0.03 0.02 0.03 0.02 0.02 0.01 0.01 0.01 0.00 0.00 0.00 0.01 0.01 0.02 0.02 0.03 0.03 0.03 0.03 0.04 0.04
0.00 0.00 0.00 0.00 0.00 0.00 0.00 0.00 0.00 0.00 0.01 0.02 0.06 0.12 0.25 0.46 0.56 0.48 0.34 0.24 0.17 0.11 0.06 0.04 0.04 0.04 0.02 0.02 0.01 0.01 0.01 0.01 0.00 0.00 0.01 0.01 0.01 0.02 0.02 0.02 0.02 0.03 0.04
0.01 0.01 0.02 0.01 0.01 0.00 0.00 0.00 0.01 0.01 0.01 0.01 0.02 0.05 0.09 0.20 0.42 0.59 0.55 0.39 0.26 0.17 0.12 0.08 0.06 0.05 0.03 0.02 0.02 0.01 0.01 0.01 0.01 0.00 0.00 0.00 0.00 0.00 0.00 0.01 0.01 0.01 0.01
0.03 0.03 0.03 0.03 0.02 0.01 0.00 0.00 0.01 0.01 0.02 0.02 0.02 0.02 0.04 0.09 0.17 0.33 0.48 0.52 0.45 0.29 0.16 0.11 0.08 0.06 0.04 0.02 0.01 0.01 0.01 0.01 0.01 0.01 0.01 0.01 0.01 0.00 0.00 0.00 0.00 0.00 0.00
0.05 0.06 0.06 0.06 0.05 0.04 0.02 0.01 0.00 0.02 0.03 0.03 0.03 0.03 0.02 0.04 0.09 0.15 0.24 0.35 0.40 0.35 0.25 0.16 0.10 0.08 0.06 0.04 0.02 0.01 0.01 0.01 0.01 0.01 0.01 0.01 0.01 0.01 0.01 0.00 0.00 0.00 0.00
0.07 0.08 0.08 0.08 0.09 0.07 0.04 0.01 0.01 0.01 0.04 0.05 0.05 0.04 0.03 0.03 0.04 0.09 0.16 0.21 0.25 0.25 0.21 0.15 0.12 0.11 0.10 0.09 0.05 0.03 0.01 0.01 0.02 0.02 0.01 0.02 0.02 0.01 0.00 0.00 0.00 0.00 0.00
0.08 0.09 0.10 0.10 0.10 0.10 0.06 0.02 0.01 0.03 0.06 0.06 0.05 0.04 0.04 0.04 0.02 0.03 0.08 0.16 0.19 0.19 0.17 0.15 0.11 0.11 0.11 0.09 0.07 0.04 0.02 0.02 0.03 0.02 0.01 0.02 0.02 0.01 0.01 0.00 0.00 0.00 0.00
0.10 0.10 0.11 0.11 0.11 0.12 0.08 0.03 0.02 0.05 0.05 0.05 0.06 0.05 0.02 0.02 0.02 0.01 0.03 0.09 0.14 0.17 0.16 0.13 0.10 0.08 0.07 0.06 0.05 0.03 0.02 0.02 0.03 0.03 0.02 0.01 0.01 0.01 0.00 0.00 0.00 0.00 0.00
MSLP
1011.33 1011.45 1011.58 1011.74 1011.92 1012.13 1012.37 1012.60 1012.83 1013.01 1013.15 1013.22 1013.23 1013.21 1013.17 1013.15 1013.18 1013.28 1013.46 1013.73 1014.06 1014.43 1014.82 1015.22 1015.60 1015.98 1016.33 1016.69 1017.03 1017.38 1017.72 1018.05 1018.38 1018.68 1018.97 1019.25 1019.52 1019.79 1020.07 1020.36 1020.66 1020.97 1021.27
1010.89 1010.95 1011.04 1011.16 1011.32 1011.51 1011.72 1011.95 1012.18 1012.39 1012.55 1012.66 1012.72 1012.73 1012.72 1012.71 1012.74 1012.82 1012.96 1013.18 1013.47 1013.81 1014.18 1014.58 1014.99 1015.40 1015.81 1016.21 1016.60 1016.98 1017.35 1017.69 1018.01 1018.31 1018.58 1018.84 1019.10 1019.36 1019.63 1019.93 1020.24 1020.57 1020.91
1010.54 1010.54 1010.59 1010.67 1010.79 1010.96 1011.16 1011.38 1011.61 1011.83 1012.01 1012.16 1012.25 1012.29 1012.31 1012.31 1012.32 1012.36 1012.46 1012.62 1012.84 1013.12 1013.46 1013.85 1014.26 1014.70 1015.15 1015.60 1016.05 1016.47 1016.88 1017.25 1017.58 1017.87 1018.13 1018.37 1018.61 1018.85 1019.11 1019.40 1019.72 1020.08 1020.44
1010.28 1010.24 1010.25 1010.30 1010.40 1010.53 1010.71 1010.92 1011.13 1011.35 1011.55 1011.71 1011.82 1011.89 1011.92 1011.92 1011.91 1011.92 1011.96 1012.04 1012.19 1012.40 1012.68 1013.02 1013.42 1013.87 1014.34 1014.84 1015.33 1015.81 1016.26 1016.67 1017.03 1017.33 1017.60 1017.83 1018.05 1018.27 1018.52 1018.80 1019.14 1019.51 1019.91
1010.12 1010.05 1010.04 1010.07 1010.15 1010.27 1010.41 1010.59 1010.78 1010.97 1011.15 1011.31 1011.43 1011.51 1011.54 1011.54 1011.52 1011.49 1011.48 1011.49 1011.56 1011.68 1011.88 1012.16 1012.52 1012.94 1013.42 1013.93 1014.47 1015.00 1015.50 1015.95 1016.35 1016.69 1016.97 1017.21 1017.43 1017.65 1017.89 1018.17 1018.51 1018.90 1019.33
1010.06 1010.00 1009.99 1010.02 1010.08 1010.17 1010.28 1010.41 1010.55 1010.69 1010.83 1010.95 1011.06 1011.14 1011.18 1011.18 1011.15 1011.10 1011.04 1011.00 1010.98 1011.03 1011.14 1011.34 1011.63 1012.00 1012.45 1012.97 1013.51 1014.07 1014.61 1015.11 1015.56 1015.93 1016.25 1016.51 1016.75 1016.98 1017.23 1017.53 1017.87 1018.28 1018.73
1010.12 1010.08 1010.08 1010.12 1010.18 1010.24 1010.31 1010.37 1010.44 1010.50 1010.57 1010.65 1010.72 1010.78 1010.81 1010.82 1010.80 1010.75 1010.67 1010.59 1010.52 1010.50 1010.53 1010.64 1010.85 1011.15 1011.55 1012.03 1012.56 1013.12 1013.68 1014.21 1014.69 1015.10 1015.46 1015.76 1016.02 1016.28 1016.55 1016.86 1017.23 1017.64 1018.11
1010.27 1010.27 1010.31 1010.36 1010.42 1010.46 1010.47 1010.46 1010.43 1010.40 1010.38 1010.38 1010.40 1010.43 1010.46 1010.48 1010.48 1010.45 1010.38 1010.29 1010.20 1010.13 1010.09 1010.13 1010.26 1010.48 1010.81 1011.22 1011.71 1012.23 1012.78 1013.31 1013.80 1014.24 1014.62 1014.96 1015.26 1015.55 1015.85 1016.18 1016.56 1016.99 1017.46
1010.50 1010.53 1010.61 1010.68 1010.74 1010.75 1010.70 1010.61 1010.49 1010.36 1010.24 1010.16 1010.11 1010.11 1010.13 1010.17 1010.19 1010.19 1010.16 1010.10 1010.01 1009.92 1009.85 1009.84 1009.89 1010.04 1010.28 1010.62 1011.03 1011.50 1011.99 1012.49 1012.96 1013.40 1013.79 1014.14 1014.47 1014.79 1015.12 1015.47 1015.87 1016.31 1016.78
1010.73 1010.80 1010.91 1011.00 1011.05 1011.04 1010.94 1010.78 1010.57 1010.34 1010.13 1009.96 1009.86 1009.82 1009.83 1009.87 1009.93 1009.97 1009.99 1009.96 1009.91 1009.83 1009.77 1009.72 1009.74 1009.82 1009.99 1010.25 1010.57 1010.95 1011.37 1011.80 1012.22 1012.62 1012.99 1013.34 1013.68 1014.02 1014.37 1014.74 1015.16 1015.60 1016.06
1010.89 1010.99 1011.12 1011.22 1011.27 1011.24 1011.10 1010.89 1010.61 1010.31 1010.03 1009.79 1009.63 1009.55 1009.55 1009.59 1009.67 1009.75 1009.81 1009.84 1009.83 1009.79 1009.74 1009.71 1009.71 1009.77 1009.89 1010.07 1010.31 1010.60 1010.93 1011.26 1011.61 1011.95 1012.28 1012.60 1012.93 1013.27 1013.63 1014.02 1014.44 1014.88 1015.34
1010.93 1011.04 1011.16 1011.27 1011.32 1011.27 1011.12 1010.88 1010.57 1010.23 1009.90 1009.63 1009.43 1009.32 1009.29 1009.33 1009.41 1009.51 1009.59 1009.66 1009.69 1009.70 1009.70 1009.70 1009.72 1009.78 1009.87 1010.02 1010.20 1010.41 1010.65 1010.90 1011.16 1011.42 1011.69 1011.97 1012.27 1012.60 1012.95 1013.35 1013.77 1014.21 1014.66
1010.79 1010.88 1010.99 1011.09 1011.13 1011.08 1010.94 1010.70 1010.40 1010.07 1009.74 1009.46 1009.24 1009.11 1009.06 1009.08 1009.14 1009.22 1009.31 1009.39 1009.45 1009.50 1009.54 1009.59 1009.66 1009.75 1009.87 1010.01 1010.17 1010.34 1010.52 1010.69 1010.87 1011.06 1011.26 1011.49 1011.75 1012.06 1012.40 1012.79 1013.20 1013.64 1014.07
1010.46 1010.51 1010.59 1010.67 1010.70 1010.66 1010.54 1010.35 1010.09 1009.80 1009.52 1009.26 1009.06 1008.93 1008.86 1008.84 1008.86 1008.90 1008.96 1009.02 1009.08 1009.15 1009.23 1009.34 1009.47 1009.63 1009.80 1009.99 1010.17 1010.33 1010.49 1010.62 1010.75 1010.88 1011.03 1011.21 1011.44 1011.71 1012.03 1012.40 1012.80 1013.22 1013.64
1009.97 1009.96 1009.99 1010.03 1010.05 1010.03 1009.95 1009.82 1009.64 1009.43 1009.22 1009.03 1008.87 1008.75 1008.66 1008.61 1008.58 1008.56 1008.56 1008.57 1008.60 1008.67 1008.79 1008.94 1009.15 1009.39 1009.65 1009.90 1010.15 1010.36 1010.54 1010.68 1010.79 1010.90 1011.02 1011.16 1011.35 1011.60 1011.90 1012.24 1012.62 1013.02 1013.42
1009.37 1009.29 1009.25 1009.25 1009.25 1009.24 1009.21 1009.14 1009.05 1008.95 1008.84 1008.74 1008.64 1008.56 1008.47 1008.39 1008.31 1008.22 1008.15 1008.09 1008.08 1008.13 1008.25 1008.45 1008.72 1009.05 1009.41 1009.77 1010.11 1010.40 1010.65 1010.84 1010.98 1011.10 1011.21 1011.35 1011.52 1011.74 1012.01 1012.33 1012.69 1013.06 1013.42
1008.73 1008.57 1008.46 1008.40 1008.38 1008.37 1008.36 1008.36 1008.36 1008.36 1008.36 1008.36 1008.35 1008.32 1008.26 1008.17 1008.05 1007.91 1007.77 1007.65 1007.59 1007.61 1007.72 1007.94 1008.27 1008.67 1009.13 1009.60 1010.05 1010.46 1010.80 1011.07 1011.28 1011.45 1011.59 1011.74 1011.91 1012.12 1012.38 1012.67 1013.00 1013.33 1013.67
1008.11 1007.87 1007.69 1007.57 1007.50 1007.48 1007.49 1007.53 1007.60 1007.68 1007.78 1007.88 1007.96 1008.00 1008.00 1007.93 1007.81 1007.64 1007.46 1007.30 1007.19 1007.17 1007.27 1007.50 1007.86 1008.32 1008.86 1009.43 1010.00 1010.52 1010.98 1011.35 1011.65 1011.89 1012.09 1012.28 1012.47 1012.68 1012.93 1013.20 1013.50 1013.81 1014.11
1007.55 1007.24 1006.99 1006.80 1006.68 1006.62 1006.61 1006.67 1006.77 1006.92 1007.10 1007.29 1007.46 1007.59 1007.66 1007.65 1007.56 1007.41 1007.23 1007.04 1006.91 1006.87 1006.95 1007.17 1007.54 1008.04 1008.64 1009.29 1009.94 1010.57 1011.14 1011.62 1012.03 1012.35 1012.63 1012.87 1013.10 1013.34 1013.59 1013.86 1014.14 1014.42 1014.70
1007.05 1006.68 1006.36 1006.12 1005.93 1005.82 1005.78 1005.81 1005.92 1006.10 1006.32 1006.58 1006.84 1007.06 1007.22 1007.30 1007.29 1007.19 1007.04 1006.88 1006.75 1006.70 1006.76 1006.97 1007.33 1007.84 1008.45 1009.15 1009.87 1010.58 1011.24 1011.83 1012.33 1012.76 1013.12 1013.44 1013.73 1014.00 1014.28 1014.55 1014.83 1015.11 1015.38
1006.57 1006.16 1005.80 1005.50 1005.26 1005.09 1004.99 1004.98 1005.06 1005.23 1005.48 1005.78 1006.11 1006.42 1006.68 1006.87 1006.96 1006.96 1006.89 1006.77 1006.67 1006.62 1006.67 1006.86 1007.19 1007.68 1008.29 1008.99 1009.75 1010.51 1011.24 1011.92 1012.52 1013.04 1013.50 1013.90 1014.25 1014.59 1014.90 1015.21 1015.51 1015.80 1016.08
1006.07 1005.65 1005.27 1004.94 1004.65 1004.42 1004.26 1004.20 1004.23 1004.37 1004.62 1004.94 1005.32 1005.71 1006.07 1006.37 1006.58 1006.69 1006.71 1006.67 1006.61 1006.58 1006.62 1006.78 1007.08 1007.52 1008.10 1008.79 1009.54 1010.33 1011.11 1011.85 1012.54 1013.15 1013.70 1014.19 1014.63 1015.03 1015.41 1015.77 1016.11 1016.43 1016.74
1005.51 1005.11 1004.73 1004.39 1004.07 1003.81 1003.60 1003.48 1003.47 1003.57 1003.80 1004.13 1004.54 1004.99 1005.44 1005.84 1006.15 1006.37 1006.48 1006.52 1006.51 1006.50 1006.54 1006.67 1006.92 1007.32 1007.85 1008.51 1009.24 1010.04 1010.85 1011.64 1012.39 1013.08 1013.71 1014.29 1014.81 1015.30 1015.74 1016.17 1016.56 1016.94 1017.29
1004.88 1004.51 1004.17 1003.84 1003.53 1003.26 1003.03 1002.87 1002.82 1002.89 1003.09 1003.42 1003.84 1004.33 1004.83 1005.30 1005.70 1006.00 1006.19 1006.29 1006.32 1006.33 1006.36 1006.47 1006.69 1007.03 1007.52 1008.14 1008.85 1009.64 1010.47 1011.30 1012.10 1012.86 1013.56 1014.21 1014.82 1015.37 1015.89 1016.38 1016.84 1017.27 1017.67
1004.19 1003.87 1003.58 1003.31 1003.03 1002.78 1002.55 1002.39 1002.32 1002.37 1002.55 1002.86 1003.28 1003.77 1004.29 1004.80 1005.24 1005.59 1005.82 1005.96 1006.02 1006.04 1006.07 1006.16 1006.34 1006.66 1007.12 1007.70 1008.41 1009.19 1010.03 1010.89 1011.73 1012.53 1013.29 1014.00 1014.66 1015.27 1015.85 1016.39 1016.90 1017.39 1017.84
1003.47 1003.22 1003.01 1002.80 1002.59 1002.38 1002.20 1002.06 1001.99 1002.03 1002.20 1002.48 1002.88 1003.35 1003.86 1004.35 1004.79 1005.14 1005.39 1005.53 1005.60 1005.62 1005.65 1005.74 1005.91 1006.22 1006.67 1007.25 1007.95 1008.75 1009.60 1010.47 1011.34 1012.17 1012.95 1013.69 1014.38 1015.02 1015.63 1016.21 1016.76 1017.28 1017.77
Thickness
5746 5745 5743 5741 5742 5744 5744 5744 5745 5744 5743 5741 5739 5740 5740 5741 5743 5744 5744 5741 5738 5736 5734 5733 5733 5733 5732 5731 5729 5729 5727 5726 5725 5725 5724 5724 5724 5723 5723 5723 5722 5721 5720
5740 5737 5736 5737 5738 5738 5740 5741 5742 5741 5741 5740 5739 5740 5740 5740 5740 5741 5741 5741 5738 5736 5735 5734 5733 5732 5732 5730 5729 5728 5727 5726 5725 5724 5724 5724 5724 5724 5723 5723 5722 5721 5720
5732 5730 5730 5731 5734 5734 5734 5735 5737 5738 5738 5738 5738 5739 5739 5739 5740 5740 5740 5739 5739 5737 5736 5734 5733 5732 5731 5730 5729 5727 5727 5726 5725 5724 5723 5723 5723 5723 5723 5723 5723 5722 5721
5723 5722 5723 5726 5728 5728 5729 5731 5732 5733 5733 5734 5734 5736 5737 5737 5738 5739 5738 5738 5738 5740 5738 5736 5734 5733 5731 5729 5729 5727 5727 5726 5725 5724 5723 5723 5722 5723 5723 5723 5723 5722 5722
5716 5715 5717 5720 5722 5723 5725 5728 5731 5729 5728 5729 5731 5733 5734 5735 5736 5738 5737 5738 5738 5738 5739 5737 5735 5733 5731 5730 5730 5729 5728 5727 5726 5725 5724 5723 5722 5722 5722 5722 5722 5722 5722
5710 5710 5713 5715 5717 5719 5720 5722 5724 5724 5724 5726 5729 5733 5733 5735 5736 5737 5737 5739 5739 5739 5739 5739 5737 5735 5733 5732 5731 5730 5729 5728 5727 5725 5724 5723 5722 5721 5721 5721 5722 5722 5722
5706 5705 5707 5708 5709 5711 5715 5718 5719 5719 5719 5723 5721 5723 5728 5732 5734 5734 5735 5738 5740 5740 5740 5740 5738 5739 5738 5734 5733 5732 5731 5729 5728 5726 5725 5724 5722 5721 5720 5720 5720 5721 5721
5699 5700 5700 5700 5701 5704 5708 5709 5710 5712 5716 5718 5715 5716 5718 5723 5727 5732 5734 5734 5736 5739 5740 5740 5740 5738 5738 5739 5738 5734 5732 5731 5729 5728 5726 5724 5723 5722 5720 5719 5719 5719 5719
5690 5692 5692 5695 5696 5696 5698 5700 5702 5702 5705 5710 5712 5711 5711 5715 5725 5728 5729 5732 5733 5735 5738 5740 5739 5739 5738 5739 5740 5736 5735 5732 5731 5729 5727 5726 5724 5722 5721 5719 5718 5717 5717
5682 5683 5684 5686 5687 5688 5690 5693 5698 5697 5697 5701 5706 5707 5709 5713 5713 5719 5722 5728 5729 5730 5734 5737 5738 5738 5737 5738 5739 5737 5734 5733 5731 5730 5729 5727 5725 5723 5721 5720 5718 5717 5716
5671 5672 5674 5675 5676 5678 5680 5684 5688 5690 5692 5694 5699 5702 5703 5704 5705 5708 5714 5720 5724 5728 5731 5731 5734 5737 5737 5737 5738 5738 5735 5732 5731 5730 5729 5727 5725 5724 5722 5721 5718 5717 5715
5660 5661 5662 5663 5665 5667 5669 5673 5677 5681 5684 5688 5691 5697 5698 5700 5702 5705 5707 5711 5717 5724 5727 5729 5731 5733 5734 5735 5735 5734 5732 5731 5731 5730 5728 5726 5725 5723 5722 5720 5719 5717 5715
5650 5650 5651 5651 5653 5655 5658 5661 5666 5670 5675 5678 5682 5687 5693 5698 5703 5704 5705 5709 5711 5718 5719 5723 5727 5729 5729 5729 5731 5729 5730 5730 5729 5728 5727 5725 5723 5722 5720 5719 5717 5716 5714
5639 5639 5638 5639 5641 5644 5647 5649 5653 5659 5664 5668 5675 5679 5683 5690 5697 5699 5701 5703 5704 5710 5714 5718 5723 5724 5724 5725 5725 5725 5728 5726 5726 5726 5724 5723 5721 5719 5717 5716 5714 5713 5711
5629 5629 5627 5627 5629 5631 5634 5637 5641 5646 5651 5657 5663 5668 5674 5682 5688 5693 5698 5700 5701 5703 5709 5711 5716 5718 5720 5720 5720 5723 5724 5720 5721 5721 5720 5719 5717 5715 5713 5711 5710 5708 5707
5617 5616 5616 5616 5617 5619 5620 5623 5629 5634 5637 5643 5649 5655 5663 5671 5679 5685 5690 5694 5698 5700 5705 5711 5711 5715 5714 5716 5714 5716 5715 5714 5714 5715 5714 5713 5711 5709 5707 5706 5704 5701 5700
5604 5604 5604 5604 5605 5606 5608 5610 5615 5620 5625 5630 5636 5642 5650 5657 5665 5673 5680 5685 5690 5693 5695 5703 5708 5708 5706 5708 5709 5710 5711 5710 5708 5707 5706 5705 5703 5702 5700 5698 5696 5695 5693
5589 5589 5589 5590 5591 5594 5596 5598 5601 5606 5612 5617 5623 5628 5635 5643 5650 5658 5667 5675 5681 5686 5688 5692 5697 5700 5699 5700 5701 5701 5702 5702 5700 5697 5697 5696 5694 5692 5691 5689 5688 5686 5685
5572 5571 5572 5574 5576 5578 5581 5584 5587 5592 5597 5603 5610 5615 5621 5627 5636 5643 5652 5662 5670 5676 5681 5686 5689 5692 5692 5693 5692 5692 5692 5692 5691 5688 5687 5685 5684 5682 5681 5679 5677 5676 5676
5554 5554 5554 5557 5559 5562 5565 5569 5572 5576 5582 5589 5596 5602 5609 5614 5622 5629 5637 5646 5655 5664 5670 5676 5681 5683 5684 5684 5685 5683 5681 5682 5683 5682 5678 5676 5674 5672 5670 5668 5667 5666 5665
5538 5537 5537 5539 5541 5545 5550 5554 5557 5561 5566 5573 5581 5588 5596 5603 5609 5616 5624 5632 5639 5649 5658 5665 5671 5674 5676 5676 5677 5677 5675 5673 5671 5672 5672 5670 5668 5665 5661 5657 5656 5655 5655
5522 5520 5520 5522 5525 5530 5536 5538 5541 5547 5554 5560 5567 5575 5583 5589 5596 5602 5610 5619 5626 5634 5644 5654 5662 5667 5670 5673 5674 5672 5669 5667 5663 5662 5664 5662 5662 5659 5656 5650 5646 5645 5645
5507 5504 5504 5506 5510 5514 5518 5521 5525 5533 5542 5548 5555 5561 5571 5581 5585 5593 5600 5607 5614 5622 5631 5640 5650 5659 5664 5668 5668 5666 5666 5666 5663 5657 5657 5652 5652 5649 5643 5637 5636 5636 5636
5494 5491 5491 5493 5496 5501 5503 5507 5512 5520 5531 5539 5544 5550 5557 5567 5575 5583 5592 5599 5606 5614 5622 5631 5640 5649 5655 5660 5662 5662 5661 5656 5651 5649 5651 5645 5642 5638 5634 5628 5625 5625 5626
5484 5482 5482 5483 5486 5491 5493 5496 5501 5513 5522 5530 5537 5544 5549 5555 5561 5568 5581 5591 5599 5606 5613 5621 5628 5636 5642 5649 5653 5653 5650 5648 5642 5639 5641 5641 5635 5631 5626 5621 5616 5616 5616
5479 5477 5476 5477 5480 5484 5487 5490 5493 5508 5517 5526 5532 5539 5541 5546 5549 5555 5568 5579 5589 5599 5608 5615 5620 5626 5633 5638 5643 5647 5648 5647 5642 5636 5635 5636 5632 5629 5621 5617 5613 5610 5608